Weather in Putsilovka

Russia / Primorsky Krai     43°49′36″N   131°37′48″E
temp.,
°C
wind,
m/s
gust,
m/s
humid.,
%
clouds,
%
prec.,
mm/h
press.,
hPa
HPBL,
m
11 may, tue
tue1101:00+6s009338 0.0 101510
04:00+5w119416 0.0 101510
07:00+5nw11938 0.0 101634
10:00+11n357018 0.0 1017833
13:00+13ne455866 0.0 10181194
16:00+16ne44510 0.0 10161132
19:00+14e34625 0.0 1017371
22:00+8s4108517 0.0 1018263
12 may, wed
wed1201:00+6s6158944 0.0 1019526
04:00+7s7158687 0.0 1018623
07:00+7s6158491 0.0 1018728
10:00+9s81574100 0.0 1017884
13:00+10s71475100 0.0 1016972
16:00+9s81580100 0.1 1015890
19:00+8s71692100 1.4 1014886
22:00+8s8179388 1.6 1014738
13 may, thu
thu1301:00+8s71693100 0.0 1014629
04:00+8s6149699 0.0 1014519
07:00+9s6129493 0.0 1014465
10:00+12s71080100 0.0 1014553
13:00+17s8962100 0.0 1012738
16:00+17s7963100 0.0 1011729
19:00+13sse7127999 0.0 1011311
22:00+11s488693 0.1 1012204
14 may, fri
fri1401:00+8s47946 0.0 1012129
04:00+8sse3493100 0.0 101370
07:00+9sse248934 0.0 1013109
10:00+16sse3462100 0.0 1013360
13:00+21sse6748100 0.0 1011758
16:00+20sse81149100 0.0 1010778
19:00+14s61565100 0.0 1010490
22:00+12sse51472100 0.1 1011523
15 may, sat
sat1501:00+11sse71692100 1.5 1009581
04:00+11s71791100 1.7 1007495
07:00+10s71493100 0.0 1007353
10:00+15s697723 0.0 1007488
13:00+18nw387081 0.0 1007526
16:00+18nnw5757100 0.0 1007768
19:00+14ene247498 0.0 1008129
22:00+13n1258100 0.0 101069